CZ-6A DEB, 56644

Orbit data source: Space-Track

CZ-6A DEB, 56644 is space debris in SSO originally from a launch on Fri, 11 Nov 2022 UTC launched from the Taiyaun Space Center, China (TSC). Debris objects in space refer to the collection of defunct objects orbiting the Earth. Examples of debris include non-operational satellites, rocket bodies, and fragments generated from explosions, collisions, or faulty payload assembly.

Loading next visibility...
Identifier
56644, 2022-151AFU
Orbit
SSO
Country
Flag of CNCN / PRC
Related business
Manufacturer
SAST
Mission
Spacecraft
Bus & Motor
Unknown
Mass
Unknown
Launch date (UTC)
2022-11-11 (4 years ago)
Launch vehicle
Unknown
Launch site
Taiyaun Space Center, China (TSC)
Object type
Payload
Rocket body
Debris
Shape & HBR
Unknown shape, 0.1 m
Radar Cross Section
Small (<0.1 m²)

Expand to show TLE details & history
Last TLE update: 3 days ago

TLE from 3 days ago
0 CZ-6A DEB
1 56644U 22151AFU 26170.28500591  .00000170  00000-0  11751-3 0  9998
2 56644  98.8315 171.9273 0038116 317.9486  41.8762 14.11279088162938
Epoch: 2026-06-19T06:50Z
TLE epoch observation values (Epoch: 2026-06-19T06:50:24.510Z)
Latitude
0.00004°
Longitude
161.80899°
Altitude
837.411 km
Speed
7.445 km/s
True Right ascension
11h 27m 42s
True Declination
0° 00' 00"
Sunlit
Object was in daylight at epoch
Visualization orbit readout
Latitude
Unknown
Longitude
Unknown
Altitude
Unknown
Speed
Unknown
Apparent Right ascension
Unknown
Apparent Declination
Unknown
Sunlit
N/A
Visualization observer readout
Local Sidereal Time
00:49:55
Azimuth
Unknown
Elevation
Unknown
Doppler factor
Unknown
Orbital elements
Apogee altitude
879.733 km
Perigee altitude
824.615 km
Semi-major axis
7,230.311 km
Eccentricity
0.00381
Inclination
98.8315°
RAAN
171.9273°
Arg. of periapsis
317.9486°
True anomaly
42.1688°
Mean anomaly
41.8762°
Eccentric anomaly
42.02239°
Mean motion
3.53027 °/min
Orbital period
101.98 mins
BSTAR
0.00011751
Loading maneuver chart data...
Computing Atmospheric mass density...
Loading historical data...
Loading historical data...
Loading historical data...
Loading historical data...
Loading historical data...
Loading historical data...
Loading historical data...

Documentation

Showing up to 5 results
|